Location: Unspecified
(0.0000°N, 0.0000°E)
Time: 22:27:37
(UTC+00:00)

GONETS M 08 (M18) - Pass Details

Date: 17 May 2026
Orbit: 1470 x 1518 km, 82.5° (Epoch: 7 June)

Event Time Altitude Azimuth Distance (km) Brightness Sun altitude
Rises 19:36:40 0° 316° (NW) 4,591 ? -23.5°
Reaches altitude 10° 19:42:00 10° 288° (WNW) 3,606 ? -24.8°
Maximum altitude 19:45:05 12° 267° (W) 3,424 ? -25.5°
Drops below altitude 10° 19:48:12 10° 245° (WSW) 3,603 ? -26.2°
Sets 19:53:36 0° 217° (SW) 4,583 ? -27.5°
